Moab, UT

6:04 PM MST on December 06, 2019 (GMT -0700)
Canyonlands

Weather History for KCNY - June, 2019

Change the Weather History Date:

Friday, June 7, 2019

  Actual Average Record
Temperature  
Mean Temperature 73 °F 70 °F  
Max Temperature 89 °F 87 °F 105 °F (1985)
Min Temperature 57 °F 53 °F 38 °F (1954)
Degree Days  
Heating Degree Days 0 1  
Month to date heating degree days 0 9  
Since 1 June heating degree days 0 9  
Since 1 July heating degree days 5803 5569  
Cooling Degree Days 8 6  
Month to date cooling degree days 52 38  
Year to date cooling degree days 67 102  
Since 1 June cooling degree days 52 38  
Growing Degree Days 22 (Base 50)    
Moisture  
Dew Point 36 °F    
Average Humidity 36    
Maximum Humidity 62    
Minimum Humidity 9    
Precipitation  
Precipitation T in 0.02 in 0.42 in (1984)
Month to date precipitation T 0.12  
Year to date precipitation 5.98 3.32  
Sea Level Pressure  
Sea Level Pressure 29.67 in    
Wind  
Wind Speed 12 mph (SSW)    
Max Wind Speed 29 mph    
Max Gust Speed 39 mph    
Visibility 10 miles    
Events Rain    
T = Trace of Precipitation, MM = Missing Value Source: NWS Daily Summary

Daily Weather History Graph

Daily Weather History Graph

Search for Another Location

Airport or City:

Astronomy

Jun. 07, 2019 Rise Set
Actual Time 5:54 AM MDT 8:41 PM MDT
Civil Twilight 5:22 AM MDT 9:13 PM MDT
Nautical Twilight 4:42 AM MDT 9:53 PM MDT
Astronomical Twilight 3:57 AM MDT 10:38 PM MDT
Moon 10:14 AM MDT 12:02 AM MDT
Length of Visible Light 15h 50m
Length of Day
14h 47m
Waxing Crescent, 23% of the Moon is Illuminated
Jun 7
Waxing Crescent
Jun 10
First Quarter
Jun 17
Full
Jun 25
Last Quarter
Jul 2
New

Hourly Weather History & Observations

Time (MDT) Temp. Dew Point Humidity Pressure Visibility Wind Dir Wind Speed Gust Speed Precip Events Conditions
12:53 AM 68.0 °F 45.0 °F 43% 29.70 in 10.0 mi SW 3.5 mph - N/A   Clear
1:53 AM 64.9 °F 45.0 °F 48% 29.71 in 10.0 mi West 8.1 mph - N/A   Clear
2:53 AM 64.9 °F 46.9 °F 52% 29.70 in 10.0 mi Calm Calm - 0.00 in Rain Light Rain
3:53 AM 63.0 °F 45.0 °F 52% 29.71 in 10.0 mi NW 5.8 mph - 0.00 in   Clear
4:53 AM 60.1 °F 45.0 °F 57% 29.73 in 10.0 mi Calm Calm - N/A   Clear
5:53 AM 57.0 °F 45.0 °F 64% 29.73 in 10.0 mi Calm Calm - N/A   Clear
6:53 AM 59.0 °F 46.0 °F 62% 29.75 in 10.0 mi Calm Calm - N/A   Clear
7:53 AM 69.1 °F 46.9 °F 45% 29.75 in 10.0 mi ESE 3.5 mph - N/A   Clear
8:53 AM 75.0 °F 44.1 °F 33% 29.75 in 10.0 mi SE 3.5 mph - N/A   Clear
9:53 AM 82.0 °F 35.1 °F 18% 29.71 in 10.0 mi SSW 13.8 mph 18.4 mph N/A   Clear
10:53 AM 84.0 °F 34.0 °F 17% 29.70 in 10.0 mi SW 13.8 mph 28.8 mph N/A   Clear
11:53 AM 86.0 °F 30.9 °F 14% 29.70 in 10.0 mi SW 23.0 mph 32.2 mph N/A   Clear
12:53 PM 86.0 °F 30.9 °F 14% 29.68 in 10.0 mi SSW 16.1 mph 31.1 mph N/A   Clear
1:53 PM 87.1 °F 27.0 °F 11% 29.66 in 10.0 mi WSW 23.0 mph 39.1 mph N/A   Clear
2:53 PM 88.0 °F 26.1 °F 11% 29.65 in 10.0 mi South 18.4 mph 26.5 mph N/A   Clear
3:53 PM 87.1 °F 23.0 °F 10% 29.62 in 10.0 mi SSW 20.7 mph 31.1 mph N/A   Clear
4:53 PM 88.0 °F 26.1 °F 11% 29.62 in 10.0 mi SSW 24.2 mph 36.8 mph N/A   Clear
5:53 PM 87.1 °F 28.9 °F 12% 29.62 in 10.0 mi SW 19.6 mph 29.9 mph N/A   Clear
6:53 PM 84.9 °F 30.9 °F 14% 29.60 in 10.0 mi SSW 21.9 mph 31.1 mph N/A   Clear
7:53 PM 82.9 °F 30.0 °F 15% 29.59 in 10.0 mi SW 15.0 mph 27.6 mph N/A   Clear
8:53 PM 79.0 °F 32.0 °F 18% 29.59 in 10.0 mi SSW 9.2 mph - N/A   Clear
9:53 PM 75.9 °F 34.0 °F 22% 29.59 in 10.0 mi SSW 10.4 mph - N/A   Clear
10:53 PM 73.0 °F 35.1 °F 25% 29.60 in 10.0 mi SSW 10.4 mph - N/A   Partly Cloudy
11:53 PM 73.9 °F 36.0 °F 25% 29.59 in 10.0 mi SW 10.4 mph - N/A   Partly Cloudy